Time,TemperatureF,DewpointF,PressureIn,WindDirection,WindDirectionDegrees,WindSpeedMPH,WindSpeedGustMPH,Humidity,HourlyPrecipIn,Conditions,Clouds,dailyrainin,SoftwareType,DateUTC
2013-05-12 00:00:00,50.7,36.0,27.32,South,180,1.1,1.1,57,0.00,CLR,,0.00,WeatherDisplay:10.37,2013-05-12 05:00:00,
2013-05-12 00:05:00,50.5,35.9,27.32,East,90,2.3,2.3,57,0.00,CLR,,0.00,WeatherDisplay:10.37,2013-05-12 05:05:00,
2013-05-12 00:10:00,50.5,35.9,27.32,South,180,1.1,1.1,57,0.00,CLR,,0.00,WeatherDisplay:10.37,2013-05-12 05:10:00,
2013-05-12 00:16:00,50.2,36.0,27.32,East,90,3.5,3.5,58,0.00,CLR,,0.00,WeatherDisplay:10.37,2013-05-12 05:16:00,
2013-05-12 00:21:00,49.8,36.9,27.32,SE,135,3.5,3.5,61,0.00,CLR,,0.00,WeatherDisplay:10.37,2013-05-12 05:21:00,
2013-05-12 00:26:00,49.5,36.6,27.32,South,180,3.5,3.5,61,0.00,CLR,,0.00,WeatherDisplay:10.37,2013-05-12 05:26:00,
2013-05-12 00:31:00,49.3,36.4,27.32,South,180,5.8,5.8,61,0.00,CLR,,0.00,WeatherDisplay:10.37,2013-05-12 05:31:00,
2013-05-12 00:37:00,49.3,36.4,27.32,South,180,3.5,3.5,61,0.00,CLR,,0.00,WeatherDisplay:10.37,2013-05-12 05:37:00,
2013-05-12 00:42:00,49.3,36.4,27.31,South,180,3.5,3.5,61,0.00,CLR,,0.00,WeatherDisplay:10.37,2013-05-12 05:42:00,
2013-05-12 00:47:00,49.3,36.4,27.31,South,180,3.5,3.5,61,0.00,CLR,,0.00,WeatherDisplay:10.37,2013-05-12 05:47:00,
2013-05-12 00:52:00,49.3,36.8,27.31,South,180,3.5,3.5,62,0.00,CLR,,0.00,WeatherDisplay:10.37,2013-05-12 05:52:00,
2013-05-12 00:57:00,49.5,37.0,27.31,South,180,4.6,4.6,62,0.00,CLR,,0.00,WeatherDisplay:10.37,2013-05-12 05:57:00,
2013-05-12 01:03:00,49.5,37.0,27.31,SE,135,3.5,3.5,62,0.00,CLR,,0.00,WeatherDisplay:10.37,2013-05-12 06:03:00,
2013-05-12 01:08:00,49.6,37.1,27.31,East,90,3.5,3.5,62,0.00,CLR,,0.00,WeatherDisplay:10.37,2013-05-12 06:08:00,
2013-05-12 01:13:00,49.6,36.7,27.31,East,90,3.5,3.5,61,0.00,CLR,,0.00,WeatherDisplay:10.37,2013-05-12 06:13:00,
2013-05-12 01:18:00,49.6,36.3,27.31,North,0,1.1,0.0,60,0.00,CLR,,0.00,WeatherDisplay:10.37,2013-05-12 06:18:00,
2013-05-12 01:23:00,30.9,27.8,26.98,North,0,0.0,0.0,88,0.00,CLR,,0.00,WeatherDisplay:10.37,2013-05-12 06:23:00,
2013-05-12 01:28:00,49.3,36.0,27.31,NE,45,0.0,0.0,60,0.00,CLR,,0.00,WeatherDisplay:10.37,2013-05-12 06:28:00,
2013-05-12 01:34:00,48.9,35.6,27.31,NE,45,0.0,0.0,60,0.00,CLR,,0.00,WeatherDisplay:10.37,2013-05-12 06:34:00,
2013-05-12 01:39:00,48.7,35.5,27.31,North,0,0.0,0.0,60,0.00,CLR,,0.00,WeatherDisplay:10.37,2013-05-12 06:39:00,
2013-05-12 01:44:00,48.6,35.7,27.31,North,0,0.0,0.0,61,0.00,CLR,,0.00,WeatherDisplay:10.37,2013-05-12 06:44:00,
2013-05-12 01:49:00,48.4,35.5,27.31,SE,135,0.0,0.0,61,0.00,CLR,,0.00,WeatherDisplay:10.37,2013-05-12 06:49:00,
2013-05-12 01:54:00,48.4,35.5,27.31,South,180,1.1,1.6,61,0.00,CLR,,0.00,WeatherDisplay:10.37,2013-05-12 06:54:00,
2013-05-12 01:59:00,48.2,36.6,27.31,South,180,1.1,1.6,64,0.00,CLR,,0.00,WeatherDisplay:10.37,2013-05-12 06:59:00,
2013-05-12 02:05:00,47.8,36.6,27.31,NE,45,0.0,0.0,65,0.00,CLR,,0.00,WeatherDisplay:10.37,2013-05-12 07:05:00,
2013-05-12 02:10:00,47.5,36.3,27.31,South,180,2.3,2.3,65,0.00,CLR,,0.00,WeatherDisplay:10.37,2013-05-12 07:10:00,
2013-05-12 02:15:00,47.3,36.5,27.31,South,180,1.1,1.1,66,0.00,CLR,,0.00,WeatherDisplay:10.37,2013-05-12 07:15:00,
2013-05-12 02:20:00,47.1,36.3,27.30,SE,135,2.3,2.3,66,0.00,CLR,,0.00,WeatherDisplay:10.37,2013-05-12 07:20:00,
2013-05-12 02:25:00,47.1,36.3,27.30,South,180,0.0,0.7,66,0.00,CLR,,0.00,WeatherDisplay:10.37,2013-05-12 07:25:00,
2013-05-12 02:30:00,47.1,36.3,27.30,East,90,2.3,2.3,66,0.00,CLR,,0.00,WeatherDisplay:10.37,2013-05-12 07:30:00,
2013-05-12 02:35:00,47.1,36.3,27.30,SE,135,1.1,1.6,66,0.00,CLR,,0.00,WeatherDisplay:10.37,2013-05-12 07:35:00,
2013-05-12 02:41:00,47.3,36.5,27.30,East,90,2.3,2.3,66,0.00,CLR,,0.00,WeatherDisplay:10.37,2013-05-12 07:41:00,
2013-05-12 02:46:00,47.3,36.5,27.30,SW,225,1.1,0.0,66,0.00,CLR,,0.00,WeatherDisplay:10.37,2013-05-12 07:46:00,
2013-05-12 02:51:00,47.3,36.5,27.30,SW,225,0.0,0.0,66,0.00,CLR,,0.00,WeatherDisplay:10.37,2013-05-12 07:51:00,
2013-05-12 02:56:00,47.1,36.3,27.30,East,90,1.1,0.0,66,0.00,CLR,,0.00,WeatherDisplay:10.37,2013-05-12 07:56:00,
2013-05-12 03:01:00,47.1,36.0,27.29,East,90,0.0,0.0,65,0.00,CLR,,0.00,WeatherDisplay:10.37,2013-05-12 08:01:00,
2013-05-12 03:07:00,47.1,36.0,27.30,East,90,0.0,0.0,65,0.00,CLR,,0.00,WeatherDisplay:10.37,2013-05-12 08:07:00,
2013-05-12 03:12:00,46.8,36.0,27.30,SE,135,1.1,0.0,66,0.00,CLR,,0.00,WeatherDisplay:10.37,2013-05-12 08:12:00,
2013-05-12 03:17:00,46.6,35.8,27.29,SE,135,2.3,2.3,66,0.00,CLR,,0.00,WeatherDisplay:10.37,2013-05-12 08:17:00,
2013-05-12 03:22:00,46.4,35.7,27.29,SE,135,2.3,2.3,66,0.00,CLR,,0.00,WeatherDisplay:10.37,2013-05-12 08:22:00,
2013-05-12 03:27:00,46.2,35.5,27.29,NE,45,1.1,0.0,66,0.00,CLR,,0.00,WeatherDisplay:10.37,2013-05-12 08:27:00,
2013-05-12 03:32:00,46.0,35.3,27.29,NE,45,2.3,2.3,66,0.00,CLR,,0.00,WeatherDisplay:10.37,2013-05-12 08:32:00,
2013-05-12 03:37:00,46.0,35.3,27.29,SE,135,1.1,0.0,66,0.00,CLR,,0.00,WeatherDisplay:10.37,2013-05-12 08:37:00,
2013-05-12 03:43:00,45.9,35.5,27.29,SE,135,2.3,2.3,67,0.00,CLR,,0.00,WeatherDisplay:10.37,2013-05-12 08:43:00,
2013-05-12 03:48:00,45.7,35.3,27.28,South,180,3.5,3.5,67,0.00,CLR,,0.00,WeatherDisplay:10.37,2013-05-12 08:48:00,
2013-05-12 03:53:00,45.5,35.5,27.28,South,180,4.6,4.6,68,0.00,CLR,,0.00,WeatherDisplay:10.37,2013-05-12 08:53:00,
2013-05-12 03:58:00,45.5,35.5,27.28,SE,135,1.1,1.1,68,0.00,CLR,,0.00,WeatherDisplay:10.37,2013-05-12 08:58:00,
2013-05-12 04:03:00,45.5,35.5,27.28,NE,45,2.3,2.3,68,0.00,CLR,,0.00,WeatherDisplay:10.37,2013-05-12 09:03:00,
2013-05-12 04:08:00,45.3,35.4,27.28,SE,135,2.3,2.3,68,0.00,CLR,,0.00,WeatherDisplay:10.37,2013-05-12 09:08:00,
2013-05-12 04:13:00,45.1,35.6,27.28,NE,45,2.3,0.0,69,0.00,CLR,,0.00,WeatherDisplay:10.37,2013-05-12 09:13:00,
2013-05-12 04:19:00,45.1,35.6,27.28,SE,135,2.3,2.3,69,0.00,CLR,,0.00,WeatherDisplay:10.37,2013-05-12 09:19:00,
2013-05-12 04:24:00,45.0,35.4,27.28,East,90,1.1,0.0,69,0.00,CLR,,0.00,WeatherDisplay:10.37,2013-05-12 09:24:00,
2013-05-12 04:29:00,44.8,35.6,27.28,SE,135,1.1,1.1,70,0.00,CLR,,0.00,WeatherDisplay:10.37,2013-05-12 09:29:00,
2013-05-12 04:34:00,44.6,35.4,27.28,South,180,1.1,1.1,70,0.00,CLR,,0.00,WeatherDisplay:10.37,2013-05-12 09:34:00,
2013-05-12 04:39:00,44.2,35.8,27.28,North,0,0.0,0.0,72,0.00,CLR,,0.00,WeatherDisplay:10.37,2013-05-12 09:39:00,
2013-05-12 04:44:00,44.2,35.8,27.27,North,0,0.0,0.0,72,0.00,CLR,,0.00,WeatherDisplay:10.37,2013-05-12 09:44:00,
2013-05-12 04:50:00,44.1,35.6,27.27,SE,135,1.1,1.1,72,0.00,CLR,,0.00,WeatherDisplay:10.37,2013-05-12 09:50:00,
2013-05-12 04:55:00,43.7,35.3,27.27,South,180,1.1,0.0,72,0.00,CLR,,0.00,WeatherDisplay:10.37,2013-05-12 09:55:00,
2013-05-12 05:00:00,43.5,35.1,27.27,ESE,112,1.1,1.1,72,0.00,CLR,,0.00,WeatherDisplay:10.37,2013-05-12 10:00:00,
2013-05-12 05:05:00,43.5,35.1,27.27,ESE,112,2.3,2.3,72,0.00,CLR,,0.00,WeatherDisplay:10.37,2013-05-12 10:05:00,
2013-05-12 05:10:00,43.3,34.9,27.27,NE,45,0.0,0.0,72,0.00,CLR,,0.00,WeatherDisplay:10.37,2013-05-12 10:10:00,
2013-05-12 05:15:00,43.3,35.3,27.27,SSW,202,24.4,0.0,73,0.00,CLR,,0.00,WeatherDisplay:10.37,2013-05-12 10:15:00,
2013-05-12 05:20:00,43.2,35.1,27.26,SW,225,0.0,0.0,73,0.00,CLR,,0.00,WeatherDisplay:10.37,2013-05-12 10:20:00,
2013-05-12 05:26:00,43.0,34.9,27.26,South,180,3.5,3.5,73,0.00,CLR,,0.00,WeatherDisplay:10.37,2013-05-12 10:26:00,
2013-05-12 05:31:00,42.8,34.7,27.26,SE,135,1.1,1.1,73,0.00,CLR,,0.00,WeatherDisplay:10.37,2013-05-12 10:31:00,
2013-05-12 05:36:00,42.6,35.2,27.26,South,180,2.3,2.3,75,0.00,CLR,,0.00,WeatherDisplay:10.37,2013-05-12 10:36:00,
2013-05-12 05:41:00,42.6,35.2,27.27,North,0,3.5,3.5,75,0.00,CLR,,0.00,WeatherDisplay:10.37,2013-05-12 10:41:00,
2013-05-12 05:46:00,42.4,35.1,27.26,East,90,1.1,0.0,75,0.00,CLR,,0.00,WeatherDisplay:10.37,2013-05-12 10:46:00,
2013-05-12 05:52:00,42.4,35.1,27.26,East,90,1.1,0.0,75,0.00,CLR,,0.00,WeatherDisplay:10.37,2013-05-12 10:52:00,
2013-05-12 05:57:00,42.3,34.9,27.26,South,180,2.3,2.3,75,0.00,CLR,,0.00,WeatherDisplay:10.37,2013-05-12 10:57:00,
2013-05-12 06:02:00,42.3,34.9,27.26,South,180,2.3,2.3,75,0.00,CLR,,0.00,WeatherDisplay:10.37,2013-05-12 11:02:00,
2013-05-12 06:07:00,42.3,34.9,27.26,South,180,2.3,2.3,75,0.00,CLR,,0.00,WeatherDisplay:10.37,2013-05-12 11:07:00,
2013-05-12 06:12:00,42.3,34.9,27.26,North,0,2.3,2.3,75,0.00,CLR,,0.00,WeatherDisplay:10.37,2013-05-12 11:12:00,
2013-05-12 06:17:00,42.3,34.9,27.26,North,0,2.3,2.3,75,0.00,CLR,,0.00,WeatherDisplay:10.37,2013-05-12 11:17:00,
2013-05-12 06:22:00,42.3,34.9,27.25,North,0,2.3,2.3,75,0.00,CLR,,0.00,WeatherDisplay:10.37,2013-05-12 11:22:00,
2013-05-12 06:28:00,42.3,34.9,27.26,North,0,2.3,2.3,75,0.00,CLR,,0.00,WeatherDisplay:10.37,2013-05-12 11:28:00,
2013-05-12 06:33:00,42.3,34.9,27.26,North,0,2.3,2.3,75,0.00,CLR,,0.00,WeatherDisplay:10.37,2013-05-12 11:33:00,
2013-05-12 06:38:00,42.3,34.9,27.25,North,0,2.3,2.3,75,0.00,CLR,,0.00,WeatherDisplay:10.37,2013-05-12 11:38:00,
2013-05-12 06:43:00,41.5,34.9,27.25,NE,45,2.3,0.0,77,0.00,CLR,,0.00,WeatherDisplay:10.37,2013-05-12 11:43:00,
2013-05-12 06:48:00,41.5,34.9,27.25,SE,135,3.5,3.5,77,0.00,CLR,,0.00,WeatherDisplay:10.37,2013-05-12 11:48:00,
2013-05-12 06:53:00,41.7,35.0,27.25,South,180,2.3,2.3,77,0.00,CLR,,0.00,WeatherDisplay:10.37,2013-05-12 11:53:00,
2013-05-12 06:59:00,41.7,35.0,27.25,West,270,1.1,0.0,77,0.00,CLR,,0.00,WeatherDisplay:10.37,2013-05-12 11:59:00,
2013-05-12 07:04:00,41.9,35.2,27.25,East,90,1.1,0.0,77,0.00,CLR,,0.00,WeatherDisplay:10.37,2013-05-12 12:04:00,
2013-05-12 07:09:00,42.4,35.7,27.26,North,0,1.1,0.0,77,0.00,CLR,,0.00,WeatherDisplay:10.37,2013-05-12 12:09:00,
2013-05-12 07:14:00,42.8,35.8,27.25,SE,135,3.5,3.5,76,0.00,CLR,,0.00,WeatherDisplay:10.37,2013-05-12 12:14:00,
2013-05-12 07:19:00,42.8,35.8,27.25,SE,135,3.5,3.5,76,0.00,CLR,,0.00,WeatherDisplay:10.37,2013-05-12 12:19:00,
2013-05-12 07:24:00,43.2,35.8,27.25,SSE,158,3.5,3.5,75,0.00,CLR,,0.00,WeatherDisplay:10.37,2013-05-12 12:24:00,
2013-05-12 07:30:00,43.2,35.8,27.24,SSE,158,2.3,2.3,75,0.00,CLR,,0.00,WeatherDisplay:10.37,2013-05-12 12:30:00,
2013-05-12 07:35:00,43.2,35.8,27.24,North,7,2.3,2.3,75,0.00,CLR,,0.00,WeatherDisplay:10.37,2013-05-12 12:35:00,
2013-05-12 07:40:00,43.2,35.8,27.24,North,0,2.3,2.3,75,0.00,CLR,,0.00,WeatherDisplay:10.37,2013-05-12 12:40:00,
2013-05-12 07:45:00,43.9,36.5,27.24,South,180,3.5,3.5,75,0.00,CLR,,0.00,WeatherDisplay:10.37,2013-05-12 12:45:00,
2013-05-12 07:50:00,44.4,37.0,27.24,SE,135,3.5,0.0,75,0.00,CLR,,0.00,WeatherDisplay:10.37,2013-05-12 12:50:00,
2013-05-12 07:55:00,45.1,37.0,27.24,North,0,3.5,0.0,73,0.00,CLR,,0.00,WeatherDisplay:10.37,2013-05-12 12:55:00,
2013-05-12 08:01:00,45.5,37.0,27.25,South,180,3.5,3.5,72,0.00,CLR,,0.00,WeatherDisplay:10.37,2013-05-12 13:01:00,
2013-05-12 08:06:00,45.7,36.8,27.25,SE,135,3.5,3.5,71,0.00,CLR,,0.00,WeatherDisplay:10.37,2013-05-12 13:06:00,
2013-05-12 08:11:00,45.9,37.0,27.25,SW,225,3.5,3.5,71,0.00,CLR,,0.00,WeatherDisplay:10.37,2013-05-12 13:11:00,
2013-05-12 08:16:00,45.9,37.0,27.25,SW,225,3.5,3.5,71,0.00,CLR,,0.00,WeatherDisplay:10.37,2013-05-12 13:16:00,
2013-05-12 08:21:00,46.4,37.9,27.25,South,180,3.5,3.5,72,0.00,CLR,,0.00,WeatherDisplay:10.37,2013-05-12 13:21:00,
2013-05-12 08:26:00,49.8,40.8,27.25,SE,135,2.3,2.3,71,0.00,CLR,,0.00,WeatherDisplay:10.37,2013-05-12 13:26:00,
2013-05-12 08:31:00,49.8,40.8,27.25,SE,135,2.3,2.3,71,0.00,CLR,,0.00,WeatherDisplay:10.37,2013-05-12 13:31:00,
2013-05-12 08:36:00,52.3,41.3,27.25,SE,135,3.5,3.5,66,0.00,CLR,,0.00,WeatherDisplay:10.37,2013-05-12 13:36:00,
2013-05-12 08:42:00,54.0,42.1,27.25,SE,135,3.5,3.5,64,0.00,CLR,,0.00,WeatherDisplay:10.37,2013-05-12 13:42:00,
2013-05-12 08:47:00,54.3,41.6,27.24,SE,135,4.6,4.6,62,0.00,CLR,,0.00,WeatherDisplay:10.37,2013-05-12 13:47:00,
2013-05-12 08:52:00,54.5,41.7,27.25,SE,135,3.5,3.5,62,0.00,CLR,,0.00,WeatherDisplay:10.37,2013-05-12 13:52:00,
2013-05-12 08:57:00,56.1,42.8,27.25,East,90,5.8,5.8,61,0.00,CLR,,0.00,WeatherDisplay:10.37,2013-05-12 13:57:00,
2013-05-12 09:02:00,55.9,42.7,27.24,SE,135,2.3,2.3,61,0.00,CLR,,0.00,WeatherDisplay:10.37,2013-05-12 14:02:00,
2013-05-12 09:07:00,55.2,42.4,27.25,NE,45,2.3,0.0,62,0.00,CLR,,0.00,WeatherDisplay:10.37,2013-05-12 14:07:00,
2013-05-12 09:13:00,55.8,42.9,27.24,SE,135,3.5,3.5,62,0.00,CLR,,0.00,WeatherDisplay:10.37,2013-05-12 14:13:00,
2013-05-12 09:18:00,57.9,44.5,27.25,East,90,3.5,3.5,61,0.00,CLR,,0.00,WeatherDisplay:10.37,2013-05-12 14:18:00,
2013-05-12 09:23:00,59.5,45.2,27.24,South,180,3.5,3.5,59,0.00,CLR,,0.00,WeatherDisplay:10.37,2013-05-12 14:23:00,
2013-05-12 09:28:00,61.2,44.9,27.24,SE,135,3.5,3.5,55,0.00,CLR,,0.00,WeatherDisplay:10.37,2013-05-12 14:28:00,
2013-05-12 09:33:00,61.9,45.5,27.24,East,90,3.5,3.5,55,0.00,CLR,,0.00,WeatherDisplay:10.37,2013-05-12 14:33:00,
2013-05-12 09:38:00,62.6,45.2,27.24,SSW,202,3.5,3.5,53,0.00,CLR,,0.00,WeatherDisplay:10.37,2013-05-12 14:38:00,
2013-05-12 09:44:00,63.0,45.1,27.24,SE,135,4.6,4.6,52,0.00,CLR,,0.00,WeatherDisplay:10.37,2013-05-12 14:44:00,
2013-05-12 09:49:00,63.0,45.1,27.24,SE,135,4.6,4.6,52,0.00,CLR,,0.00,WeatherDisplay:10.37,2013-05-12 14:49:00,
2013-05-12 09:54:00,63.1,45.2,27.24,SE,135,4.6,4.6,52,0.00,CLR,,0.00,WeatherDisplay:10.37,2013-05-12 14:54:00,
2013-05-12 09:59:00,63.1,45.7,27.23,SE,135,4.6,4.6,53,0.00,CLR,,0.00,WeatherDisplay:10.37,2013-05-12 14:59:00,
2013-05-12 10:04:00,63.5,46.1,27.24,SE,135,5.8,5.8,53,0.00,CLR,,0.00,WeatherDisplay:10.37,2013-05-12 15:04:00,
2013-05-12 10:09:00,64.0,46.6,27.23,East,90,3.5,3.8,53,0.00,CLR,,0.00,WeatherDisplay:10.37,2013-05-12 15:09:00,
2013-05-12 10:14:00,64.2,46.2,27.23,NE,45,3.5,3.5,52,0.00,CLR,,0.00,WeatherDisplay:10.37,2013-05-12 15:14:00,
2013-05-12 10:19:00,64.4,47.4,27.23,West,270,3.5,3.5,54,0.00,CLR,,0.00,WeatherDisplay:10.37,2013-05-12 15:19:00,
2013-05-12 10:24:00,65.3,48.7,27.23,North,0,4.6,4.6,55,0.00,CLR,,0.00,WeatherDisplay:10.37,2013-05-12 15:24:00,
2013-05-12 10:30:00,66.0,47.9,27.23,South,180,1.1,1.6,52,0.00,CLR,,0.00,WeatherDisplay:10.37,2013-05-12 15:30:00,
2013-05-12 10:35:00,66.4,47.7,27.23,NW,315,3.5,3.5,51,0.00,CLR,,0.00,WeatherDisplay:10.37,2013-05-12 15:35:00,
2013-05-12 10:40:00,66.7,47.5,27.23,North,0,3.5,3.5,50,0.00,CLR,,0.00,WeatherDisplay:10.37,2013-05-12 15:40:00,
2013-05-12 10:45:00,66.7,47.0,27.24,NW,315,3.8,3.8,49,0.00,CLR,,0.00,WeatherDisplay:10.37,2013-05-12 15:45:00,
2013-05-12 10:50:00,66.2,46.5,27.23,South,180,3.5,3.5,49,0.00,CLR,,0.00,WeatherDisplay:10.37,2013-05-12 15:50:00,
2013-05-12 10:56:00,67.5,48.7,27.23,NE,45,2.3,2.3,51,0.00,CLR,,0.00,WeatherDisplay:10.37,2013-05-12 15:56:00,
2013-05-12 11:01:00,67.3,46.4,27.23,NW,315,5.8,5.8,47,0.00,CLR,,0.00,WeatherDisplay:10.37,2013-05-12 16:01:00,
2013-05-12 11:06:00,67.3,46.4,27.23,NW,315,3.5,3.5,47,0.00,CLR,,0.00,WeatherDisplay:10.37,2013-05-12 16:06:00,
2013-05-12 11:11:00,67.6,47.2,27.23,NW,315,2.3,2.3,48,0.00,CLR,,0.00,WeatherDisplay:10.37,2013-05-12 16:11:00,
2013-05-12 11:16:00,68.2,47.2,27.23,NE,45,4.6,4.6,47,0.00,CLR,,0.00,WeatherDisplay:10.37,2013-05-12 16:16:00,
2013-05-12 11:21:00,68.4,46.8,27.23,South,180,4.6,4.6,46,0.00,CLR,,0.00,WeatherDisplay:10.37,2013-05-12 16:21:00,
2013-05-12 11:27:00,68.5,47.5,27.23,NW,315,4.6,4.6,47,0.00,CLR,,0.00,WeatherDisplay:10.37,2013-05-12 16:27:00,
2013-05-12 11:32:00,68.5,46.9,27.23,NW,315,4.6,4.6,46,0.00,CLR,,0.00,WeatherDisplay:10.37,2013-05-12 16:32:00,
2013-05-12 11:37:00,69.1,48.6,27.23,NW,315,3.5,3.5,48,0.00,CLR,,0.00,WeatherDisplay:10.37,2013-05-12 16:37:00,
2013-05-12 11:43:00,69.8,47.5,27.23,SW,225,3.5,0.0,45,0.00,CLR,,0.00,WeatherDisplay:10.37,2013-05-12 16:43:00,
2013-05-12 11:48:00,70.3,49.1,27.22,SW,225,3.5,3.5,47,0.00,CLR,,0.00,WeatherDisplay:10.37,2013-05-12 16:48:00,
2013-05-12 11:53:00,72.1,49.6,27.22,South,180,3.5,3.5,45,0.00,CLR,,0.00,WeatherDisplay:10.37,2013-05-12 16:53:00,
2013-05-12 11:58:00,72.9,48.4,27.22,North,0,3.5,3.5,42,0.00,CLR,,0.00,WeatherDisplay:10.37,2013-05-12 16:58:00,
2013-05-12 12:03:00,72.5,47.5,27.22,South,180,5.8,5.8,41,0.00,CLR,,0.00,WeatherDisplay:10.37,2013-05-12 17:03:00,
2013-05-12 12:08:00,72.3,47.9,27.22,North,0,3.5,3.5,42,0.00,CLR,,0.00,WeatherDisplay:10.37,2013-05-12 17:08:00,
2013-05-12 12:13:00,72.3,47.9,27.22,North,0,3.5,3.5,42,0.00,CLR,,0.00,WeatherDisplay:10.37,2013-05-12 17:13:00,
2013-05-12 12:18:00,72.9,48.4,27.22,NW,315,3.5,3.5,42,0.00,CLR,,0.00,WeatherDisplay:10.37,2013-05-12 17:18:00,
2013-05-12 12:24:00,73.0,48.6,27.21,North,0,3.5,0.0,42,0.00,CLR,,0.00,WeatherDisplay:10.37,2013-05-12 17:24:00,
2013-05-12 12:29:00,73.6,47.8,27.22,South,180,6.9,6.9,40,0.00,CLR,,0.00,WeatherDisplay:10.37,2013-05-12 17:29:00,
2013-05-12 12:34:00,73.0,47.3,27.22,North,0,4.6,4.6,40,0.00,CLR,,0.00,WeatherDisplay:10.37,2013-05-12 17:34:00,
2013-05-12 12:39:00,73.2,48.1,27.22,North,0,6.9,6.9,41,0.00,CLR,,0.00,WeatherDisplay:10.37,2013-05-12 17:39:00,
2013-05-12 12:44:00,74.1,49.6,27.22,East,90,5.8,5.8,42,0.00,CLR,,0.00,WeatherDisplay:10.37,2013-05-12 17:44:00,
2013-05-12 12:50:00,74.8,50.8,27.22,East,90,2.3,2.3,43,0.00,CLR,,0.00,WeatherDisplay:10.37,2013-05-12 17:50:00,
2013-05-12 12:55:00,76.1,50.0,27.21,East,90,3.5,3.5,40,0.00,CLR,,0.00,WeatherDisplay:10.37,2013-05-12 17:55:00,
2013-05-12 13:00:00,77.4,50.5,27.21,NE,45,3.5,3.5,39,0.00,CLR,,0.00,WeatherDisplay:10.37,2013-05-12 18:00:00,
2013-05-12 13:05:00,77.4,50.5,27.21,NE,45,3.5,3.5,39,0.00,CLR,,0.00,WeatherDisplay:10.37,2013-05-12 18:05:00,
2013-05-12 13:10:00,78.4,50.0,27.21,SSW,202,4.6,4.6,37,0.00,CLR,,0.00,WeatherDisplay:10.37,2013-05-12 18:10:00,
2013-05-12 13:16:00,78.4,49.3,27.21,NNE,22,3.5,3.5,36,0.00,CLR,,0.00,WeatherDisplay:10.37,2013-05-12 18:16:00,
2013-05-12 13:21:00,78.3,49.1,27.20,North,0,5.8,5.8,36,0.00,CLR,,0.00,WeatherDisplay:10.37,2013-05-12 18:21:00,
2013-05-12 13:26:00,78.1,48.9,27.20,West,270,5.8,5.8,36,0.00,CLR,,0.00,WeatherDisplay:10.37,2013-05-12 18:26:00,
2013-05-12 13:31:00,77.7,48.6,27.19,NW,315,3.5,3.5,36,0.00,CLR,,0.00,WeatherDisplay:10.37,2013-05-12 18:31:00,
2013-05-12 13:36:00,78.3,49.8,27.19,North,0,3.5,3.5,37,0.00,CLR,,0.00,WeatherDisplay:10.37,2013-05-12 18:36:00,
2013-05-12 13:42:00,78.4,48.5,27.20,NE,45,5.8,5.8,35,0.00,CLR,,0.00,WeatherDisplay:10.37,2013-05-12 18:42:00,
2013-05-12 13:47:00,78.4,49.3,27.19,North,0,5.8,5.8,36,0.00,CLR,,0.00,WeatherDisplay:10.37,2013-05-12 18:47:00,
2013-05-12 13:52:00,79.3,48.5,27.19,NNW,338,3.5,3.5,34,0.00,CLR,,0.00,WeatherDisplay:10.37,2013-05-12 18:52:00,
2013-05-12 13:57:00,80.1,48.4,27.19,NW,315,3.5,3.5,33,0.00,CLR,,0.00,WeatherDisplay:10.37,2013-05-12 18:57:00,
2013-05-12 14:02:00,79.7,48.0,27.19,WSW,248,1.1,1.1,33,0.00,CLR,,0.00,WeatherDisplay:10.37,2013-05-12 19:02:00,
2013-05-12 14:07:00,80.2,47.7,27.19,North,0,3.5,3.5,32,0.00,CLR,,0.00,WeatherDisplay:10.37,2013-05-12 19:07:00,
2013-05-12 14:12:00,80.1,47.5,27.19,NW,315,5.8,5.8,32,0.00,CLR,,0.00,WeatherDisplay:10.37,2013-05-12 19:12:00,
2013-05-12 14:18:00,80.4,47.9,27.19,North,0,3.5,3.5,32,0.00,CLR,,0.00,WeatherDisplay:10.37,2013-05-12 19:18:00,
2013-05-12 14:23:00,81.1,46.8,27.19,North,0,3.5,3.5,30,0.00,CLR,,0.00,WeatherDisplay:10.37,2013-05-12 19:23:00,
2013-05-12 14:28:00,81.5,47.9,27.19,West,270,2.3,2.3,31,0.00,CLR,,0.00,WeatherDisplay:10.37,2013-05-12 19:28:00,
2013-05-12 14:33:00,81.7,48.1,27.18,South,180,3.5,3.5,31,0.00,CLR,,0.00,WeatherDisplay:10.37,2013-05-12 19:33:00,
2013-05-12 14:38:00,82.2,48.6,27.18,SE,135,5.8,5.8,31,0.00,CLR,,0.00,WeatherDisplay:10.37,2013-05-12 19:38:00,
2013-05-12 14:43:00,82.8,50.7,27.19,South,180,1.1,1.1,33,0.00,CLR,,0.00,WeatherDisplay:10.37,2013-05-12 19:43:00,
2013-05-12 14:48:00,82.2,46.8,27.19,NW,315,10.4,10.4,29,0.00,CLR,,0.00,WeatherDisplay:10.37,2013-05-12 19:48:00,
2013-05-12 14:53:00,81.0,45.7,27.18,North,0,4.6,4.6,29,0.00,CLR,,0.00,WeatherDisplay:10.37,2013-05-12 19:53:00,
2013-05-12 14:58:00,80.2,46.9,27.18,NW,315,5.8,5.8,31,0.00,CLR,,0.00,WeatherDisplay:10.37,2013-05-12 19:58:00,
2013-05-12 15:04:00,79.9,46.5,27.18,NW,315,3.5,3.5,31,0.00,CLR,,0.00,WeatherDisplay:10.37,2013-05-12 20:04:00,
2013-05-12 15:09:00,80.8,47.3,27.18,NE,45,3.5,3.5,31,0.00,CLR,,0.00,WeatherDisplay:10.37,2013-05-12 20:09:00,
2013-05-12 15:14:00,81.1,47.6,27.18,SW,225,3.5,3.5,31,0.00,CLR,,0.00,WeatherDisplay:10.37,2013-05-12 20:14:00,
2013-05-12 15:19:00,81.7,47.2,27.18,North,0,1.1,1.1,30,0.00,CLR,,0.00,WeatherDisplay:10.37,2013-05-12 20:19:00,
2013-05-12 15:24:00,82.2,44.9,27.18,WNW,292,3.5,3.5,27,0.00,CLR,,0.00,WeatherDisplay:10.37,2013-05-12 20:24:00,
2013-05-12 15:29:00,82.0,48.4,27.18,SW,225,3.5,3.5,31,0.00,CLR,,0.00,WeatherDisplay:10.37,2013-05-12 20:29:00,
2013-05-12 15:34:00,82.2,44.9,27.18,NE,45,3.5,3.5,27,0.00,CLR,,0.00,WeatherDisplay:10.37,2013-05-12 20:34:00,
2013-05-12 15:39:00,82.4,49.6,27.18,North,0,1.1,1.1,32,0.00,CLR,,0.00,WeatherDisplay:10.37,2013-05-12 20:39:00,
2013-05-12 15:44:00,82.6,48.0,27.18,South,180,3.5,3.5,30,0.00,CLR,,0.00,WeatherDisplay:10.37,2013-05-12 20:44:00,
2013-05-12 15:50:00,82.2,45.9,27.18,North,0,2.3,2.3,28,0.00,CLR,,0.00,WeatherDisplay:10.37,2013-05-12 20:50:00,
2013-05-12 15:55:00,82.2,45.9,27.17,SW,225,5.8,5.8,28,0.00,CLR,,0.00,WeatherDisplay:10.37,2013-05-12 20:55:00,
2013-05-12 16:00:00,82.0,45.7,27.17,NE,45,6.9,6.9,28,0.00,CLR,,0.00,WeatherDisplay:10.37,2013-05-12 21:00:00,
2013-05-12 16:05:00,81.7,42.4,27.17,NE,45,5.8,5.8,25,0.00,CLR,,0.00,WeatherDisplay:10.37,2013-05-12 21:05:00,
2013-05-12 16:10:00,81.1,40.9,27.17,North,0,3.5,3.5,24,0.00,CLR,,0.00,WeatherDisplay:10.37,2013-05-12 21:10:00,
2013-05-12 16:15:00,80.8,41.7,27.17,NE,45,5.8,5.8,25,0.00,CLR,,0.00,WeatherDisplay:10.37,2013-05-12 21:15:00,
2013-05-12 16:21:00,80.6,40.5,27.17,NE,45,3.5,3.5,24,0.00,CLR,,0.00,WeatherDisplay:10.37,2013-05-12 21:21:00,
2013-05-12 16:26:00,81.0,39.7,27.16,North,0,9.2,9.2,23,0.00,CLR,,0.00,WeatherDisplay:10.37,2013-05-12 21:26:00,
2013-05-12 16:31:00,80.6,38.2,27.16,North,0,8.1,8.1,22,0.00,CLR,,0.00,WeatherDisplay:10.37,2013-05-12 21:31:00,
2013-05-12 16:36:00,80.2,39.1,27.16,NW,315,8.1,8.1,23,0.00,CLR,,0.00,WeatherDisplay:10.37,2013-05-12 21:36:00,
2013-05-12 16:41:00,80.4,40.3,27.16,East,90,8.1,8.1,24,0.00,CLR,,0.00,WeatherDisplay:10.37,2013-05-12 21:41:00,
2013-05-12 16:46:00,81.0,40.8,27.16,North,0,3.8,3.8,24,0.00,CLR,,0.00,WeatherDisplay:10.37,2013-05-12 21:46:00,
2013-05-12 16:51:00,80.8,38.4,27.16,North,0,5.8,5.8,22,0.00,CLR,,0.00,WeatherDisplay:10.37,2013-05-12 21:51:00,
2013-05-12 16:56:00,80.2,37.9,27.16,North,0,10.4,10.4,22,0.00,CLR,,0.00,WeatherDisplay:10.37,2013-05-12 21:56:00,
2013-05-12 17:02:00,80.1,38.9,27.16,North,0,5.8,5.8,23,0.00,CLR,,0.00,WeatherDisplay:10.37,2013-05-12 22:02:00,
2013-05-12 17:07:00,80.1,38.9,27.16,North,0,5.8,5.8,23,0.00,CLR,,0.00,WeatherDisplay:10.37,2013-05-12 22:07:00,
2013-05-12 17:12:00,80.8,39.5,27.16,SE,135,3.5,3.5,23,0.00,CLR,,0.00,WeatherDisplay:10.37,2013-05-12 22:12:00,
2013-05-12 17:17:00,81.0,40.8,27.16,North,0,2.3,2.3,24,0.00,CLR,,0.00,WeatherDisplay:10.37,2013-05-12 22:17:00,
2013-05-12 17:22:00,81.1,42.0,27.16,North,0,3.5,3.5,25,0.00,CLR,,0.00,WeatherDisplay:10.37,2013-05-12 22:22:00,
2013-05-12 17:27:00,81.3,42.1,27.16,NE,45,3.5,3.5,25,0.00,CLR,,0.00,WeatherDisplay:10.37,2013-05-12 22:27:00,
2013-05-12 17:33:00,81.5,42.3,27.16,NE,45,3.5,3.5,25,0.00,CLR,,0.00,WeatherDisplay:10.37,2013-05-12 22:33:00,
2013-05-12 17:38:00,81.3,41.1,27.16,NE,45,3.5,3.5,24,0.00,CLR,,0.00,WeatherDisplay:10.37,2013-05-12 22:38:00,
2013-05-12 17:43:00,81.3,41.1,27.15,SE,135,3.5,3.5,24,0.00,CLR,,0.00,WeatherDisplay:10.37,2013-05-12 22:43:00,
2013-05-12 17:48:00,81.5,39.0,27.15,North,0,4.6,4.6,22,0.00,CLR,,0.00,WeatherDisplay:10.37,2013-05-12 22:48:00,
2013-05-12 17:53:00,81.9,39.3,27.15,North,0,5.8,5.8,22,0.00,CLR,,0.00,WeatherDisplay:10.37,2013-05-12 22:53:00,
2013-05-12 17:58:00,81.3,38.8,27.15,South,180,3.5,3.5,22,0.00,CLR,,0.00,WeatherDisplay:10.37,2013-05-12 22:58:00,
2013-05-12 18:03:00,81.0,38.5,27.15,NE,45,3.5,3.5,22,0.00,CLR,,0.00,WeatherDisplay:10.37,2013-05-12 23:03:00,
2013-05-12 18:09:00,81.5,37.8,27.15,North,0,3.5,3.5,21,0.00,CLR,,0.00,WeatherDisplay:10.37,2013-05-12 23:09:00,
2013-05-12 18:14:00,81.5,39.0,27.14,North,0,2.3,0.0,22,0.00,CLR,,0.00,WeatherDisplay:10.37,2013-05-12 23:14:00,
2013-05-12 18:19:00,81.0,37.3,27.14,North,0,3.5,0.0,21,0.00,CLR,,0.00,WeatherDisplay:10.37,2013-05-12 23:19:00,
2013-05-12 18:24:00,81.3,38.8,27.14,North,0,3.5,3.5,22,0.00,CLR,,0.00,WeatherDisplay:10.37,2013-05-12 23:24:00,
2013-05-12 18:29:00,81.3,37.6,27.14,North,0,3.5,3.5,21,0.00,CLR,,0.00,WeatherDisplay:10.37,2013-05-12 23:29:00,
2013-05-12 18:34:00,81.1,37.5,27.14,North,0,5.8,5.8,21,0.00,CLR,,0.00,WeatherDisplay:10.37,2013-05-12 23:34:00,
2013-05-12 18:40:00,80.4,38.1,27.14,NE,45,3.5,3.5,22,0.00,CLR,,0.00,WeatherDisplay:10.37,2013-05-12 23:40:00,
2013-05-12 18:45:00,79.9,37.6,27.14,North,0,3.5,3.5,22,0.00,CLR,,0.00,WeatherDisplay:10.37,2013-05-12 23:45:00,
2013-05-12 18:50:00,79.2,38.2,27.14,NE,45,2.3,2.3,23,0.00,CLR,,0.00,WeatherDisplay:10.37,2013-05-12 23:50:00,
2013-05-12 18:55:00,79.0,38.0,27.14,NE,45,1.1,0.0,23,0.00,CLR,,0.00,WeatherDisplay:10.37,2013-05-12 23:55:00,
2013-05-12 19:00:00,79.0,38.0,27.14,North,0,2.3,2.3,23,0.00,CLR,,0.00,WeatherDisplay:10.37,2013-05-13 00:00:00,
2013-05-12 19:06:00,79.0,38.0,27.14,North,0,2.3,2.3,23,0.00,CLR,,0.00,WeatherDisplay:10.37,2013-05-13 00:06:00,
2013-05-12 19:11:00,78.6,38.8,27.14,NE,45,1.1,1.1,24,0.00,CLR,,0.00,WeatherDisplay:10.37,2013-05-13 00:11:00,
2013-05-12 19:16:00,78.6,38.8,27.14,North,0,1.1,0.0,24,0.00,CLR,,0.00,WeatherDisplay:10.37,2013-05-13 00:16:00,
2013-05-12 19:21:00,78.1,39.4,27.13,East,90,1.1,0.0,25,0.00,CLR,,0.00,WeatherDisplay:10.37,2013-05-13 00:21:00,
2013-05-12 19:26:00,77.5,39.9,27.13,NE,45,0.0,0.0,26,0.00,CLR,,0.00,WeatherDisplay:10.37,2013-05-13 00:26:00,
2013-05-12 19:31:00,77.5,39.9,27.13,East,90,1.1,0.0,26,0.00,CLR,,0.00,WeatherDisplay:10.37,2013-05-13 00:31:00,
2013-05-12 19:36:00,79.2,39.2,27.13,East,90,0.0,0.0,24,0.00,CLR,,0.00,WeatherDisplay:10.37,2013-05-13 00:36:00,
2013-05-12 19:42:00,80.4,40.3,27.14,East,90,1.1,0.0,24,0.00,CLR,,0.00,WeatherDisplay:10.37,2013-05-13 00:42:00,
2013-05-12 19:47:00,80.2,39.1,27.14,East,90,1.1,0.0,23,0.00,CLR,,0.00,WeatherDisplay:10.37,2013-05-13 00:47:00,
2013-05-12 19:52:00,79.3,38.3,27.14,NE,45,0.0,0.0,23,0.00,CLR,,0.00,WeatherDisplay:10.37,2013-05-13 00:52:00,
2013-05-12 19:57:00,78.1,39.4,27.13,NE,45,0.0,0.0,25,0.00,CLR,,0.00,WeatherDisplay:10.37,2013-05-13 00:57:00,
2013-05-12 20:02:00,77.0,39.5,27.14,North,0,0.0,0.0,26,0.00,CLR,,0.00,WeatherDisplay:10.37,2013-05-13 01:02:00,
2013-05-12 20:08:00,76.3,40.8,27.14,East,90,0.0,0.0,28,0.00,CLR,,0.00,WeatherDisplay:10.37,2013-05-13 01:08:00,
2013-05-12 20:13:00,75.2,42.5,27.14,SE,135,1.1,1.1,31,0.00,CLR,,0.00,WeatherDisplay:10.37,2013-05-13 01:13:00,
2013-05-12 20:18:00,74.3,43.3,27.14,South,180,1.1,1.1,33,0.00,CLR,,0.00,WeatherDisplay:10.37,2013-05-13 01:18:00,
2013-05-12 20:23:00,73.4,44.1,27.14,North,0,0.0,0.0,35,0.00,CLR,,0.00,WeatherDisplay:10.37,2013-05-13 01:23:00,
2013-05-12 20:29:00,72.9,42.8,27.14,NE,45,1.1,0.0,34,0.00,CLR,,0.00,WeatherDisplay:10.37,2013-05-13 01:29:00,
2013-05-12 20:34:00,72.1,42.2,27.14,North,0,1.1,0.0,34,0.00,CLR,,0.00,WeatherDisplay:10.37,2013-05-13 01:34:00,
2013-05-12 20:39:00,71.4,43.1,27.14,NE,45,0.0,0.0,36,0.00,CLR,,0.00,WeatherDisplay:10.37,2013-05-13 01:39:00,
2013-05-12 20:45:00,70.9,43.3,27.14,East,90,1.1,0.0,37,0.00,CLR,,0.00,WeatherDisplay:10.37,2013-05-13 01:45:00,
2013-05-12 20:50:00,70.2,43.4,27.14,North,0,1.1,0.0,38,0.00,CLR,,0.00,WeatherDisplay:10.37,2013-05-13 01:50:00,
2013-05-12 20:55:00,69.6,43.6,27.14,North,0,0.0,0.0,39,0.00,CLR,,0.00,WeatherDisplay:10.37,2013-05-13 01:55:00,
2013-05-12 21:00:00,69.1,43.7,27.14,NE,45,0.0,0.0,40,0.00,CLR,,0.00,WeatherDisplay:10.37,2013-05-13 02:00:00,
2013-05-12 21:05:00,69.1,43.7,27.14,NE,45,0.0,0.0,40,0.00,CLR,,0.00,WeatherDisplay:10.37,2013-05-13 02:05:00,
2013-05-12 21:10:00,68.4,44.4,27.14,SE,135,1.1,1.1,42,0.00,CLR,,0.00,WeatherDisplay:10.37,2013-05-13 02:10:00,
2013-05-12 21:16:00,67.6,44.9,27.14,East,90,0.0,0.0,44,0.00,CLR,,0.00,WeatherDisplay:10.37,2013-05-13 02:16:00,
2013-05-12 21:21:00,67.1,44.4,27.14,North,0,0.0,0.0,44,0.00,CLR,,0.00,WeatherDisplay:10.37,2013-05-13 02:21:00,
2013-05-12 21:26:00,66.9,44.3,27.14,North,0,2.3,0.0,44,0.00,CLR,,0.00,WeatherDisplay:10.37,2013-05-13 02:26:00,
2013-05-12 21:31:00,66.6,44.5,27.14,North,0,0.0,0.0,45,0.00,CLR,,0.00,WeatherDisplay:10.37,2013-05-13 02:31:00,
2013-05-12 21:36:00,66.0,44.6,27.15,North,0,0.0,0.0,46,0.00,CLR,,0.00,WeatherDisplay:10.37,2013-05-13 02:36:00,
2013-05-12 21:42:00,65.7,44.9,27.15,East,90,0.0,0.0,47,0.00,CLR,,0.00,WeatherDisplay:10.37,2013-05-13 02:42:00,
2013-05-12 21:47:00,65.3,44.5,27.14,East,90,0.0,0.0,47,0.00,CLR,,0.00,WeatherDisplay:10.37,2013-05-13 02:47:00,
2013-05-12 21:52:00,64.6,44.4,27.15,East,90,0.0,0.0,48,0.00,CLR,,0.00,WeatherDisplay:10.37,2013-05-13 02:52:00,
2013-05-12 21:58:00,64.2,44.6,27.15,North,0,0.0,0.0,49,0.00,CLR,,0.00,WeatherDisplay:10.37,2013-05-13 02:58:00,
2013-05-12 22:03:00,63.9,45.4,27.15,North,0,0.0,0.0,51,0.00,CLR,,0.00,WeatherDisplay:10.37,2013-05-13 03:03:00,
2013-05-12 22:08:00,63.3,44.9,27.15,East,90,0.0,0.0,51,0.00,CLR,,0.00,WeatherDisplay:10.37,2013-05-13 03:08:00,
2013-05-12 22:13:00,62.8,44.9,27.15,South,180,2.3,2.3,52,0.00,CLR,,0.00,WeatherDisplay:10.37,2013-05-13 03:13:00,
2013-05-12 22:18:00,62.4,45.1,27.15,South,180,0.0,0.0,53,0.00,CLR,,0.00,WeatherDisplay:10.37,2013-05-13 03:18:00,
2013-05-12 22:23:00,62.1,44.7,27.15,NNE,22,1.1,0.0,53,0.00,CLR,,0.00,WeatherDisplay:10.37,2013-05-13 03:23:00,
2013-05-12 22:29:00,61.9,44.6,27.16,East,90,0.0,0.0,53,0.00,CLR,,0.00,WeatherDisplay:10.37,2013-05-13 03:29:00,
2013-05-12 22:34:00,61.7,44.4,27.16,North,0,1.1,0.0,53,0.00,CLR,,0.00,WeatherDisplay:10.37,2013-05-13 03:34:00,
2013-05-12 22:39:00,61.5,44.2,27.16,SE,135,1.1,1.1,53,0.00,CLR,,0.00,WeatherDisplay:10.37,2013-05-13 03:39:00,
2013-05-12 22:44:00,61.2,44.4,27.16,SW,225,3.5,3.5,54,0.00,CLR,,0.00,WeatherDisplay:10.37,2013-05-13 03:44:00,
2013-05-12 22:49:00,60.8,44.0,27.16,East,90,0.0,0.0,54,0.00,CLR,,0.00,WeatherDisplay:10.37,2013-05-13 03:49:00,
2013-05-12 22:55:00,60.6,44.4,27.16,SE,135,2.3,2.3,55,0.00,CLR,,0.00,WeatherDisplay:10.37,2013-05-13 03:55:00,
2013-05-12 23:00:00,60.4,44.7,27.16,North,0,1.1,0.0,56,0.00,CLR,,0.00,WeatherDisplay:10.37,2013-05-13 04:00:00,
2013-05-12 23:01:00,60.4,44.7,27.17,North,0,1.1,0.0,56,0.00,CLR,,0.00,WeatherDisplay:10.37,2013-05-13 04:01:00,
2013-05-12 23:02:00,60.4,44.7,27.16,North,0,0.0,0.0,56,0.00,CLR,,0.00,WeatherDisplay:10.37,2013-05-13 04:02:00,
2013-05-12 23:04:00,60.4,44.7,27.16,North,0,0.0,0.0,56,0.00,CLR,,0.00,WeatherDisplay:10.37,2013-05-13 04:04:00,
2013-05-12 23:09:00,59.9,44.2,27.16,South,180,1.1,1.1,56,0.00,CLR,,0.00,WeatherDisplay:10.37,2013-05-13 04:09:00,
2013-05-12 23:14:00,59.5,44.3,27.16,South,180,2.3,2.3,57,0.00,CLR,,0.00,WeatherDisplay:10.37,2013-05-13 04:14:00,
2013-05-12 23:19:00,59.4,44.1,27.16,South,180,0.0,0.0,57,0.00,CLR,,0.00,WeatherDisplay:10.37,2013-05-13 04:19:00,
2013-05-12 23:24:00,59.2,43.9,27.16,South,180,1.1,0.0,57,0.00,CLR,,0.00,WeatherDisplay:10.37,2013-05-13 04:24:00,
2013-05-12 23:30:00,59.0,44.2,27.16,NE,45,0.0,0.0,58,0.00,CLR,,0.00,WeatherDisplay:10.37,2013-05-13 04:30:00,
2013-05-12 23:35:00,58.8,44.5,27.16,North,0,0.0,0.0,59,0.00,CLR,,0.00,WeatherDisplay:10.37,2013-05-13 04:35:00,
2013-05-12 23:40:00,58.8,44.5,27.16,North,0,0.0,0.0,59,0.00,CLR,,0.00,WeatherDisplay:10.37,2013-05-13 04:40:00,
2013-05-12 23:45:00,58.6,44.3,27.16,East,90,0.0,0.0,59,0.00,CLR,,0.00,WeatherDisplay:10.37,2013-05-13 04:45:00,
2013-05-12 23:50:00,58.5,44.2,27.16,NE,45,0.0,0.0,59,0.00,CLR,,0.00,WeatherDisplay:10.37,2013-05-13 04:50:00,
2013-05-12 23:55:00,58.5,44.6,27.17,NE,45,0.0,0.0,60,0.00,CLR,,0.00,WeatherDisplay:10.37,2013-05-13 04:55:00,